Location: Unnamed
(48.6007°N, 2.4808°E)
Time: 22:54:41
(UTC+01:00)

FENGYUN 1C DEB - Visible Passes

Search period start: 29 November 2023 00:00
Search period end: 09 December 2023 00:00
Orbit: 759 x 831 km, 99.0° (Epoch: 29 November)

Date Brightness Start Highest point End Pass type
(mag) Time Alt. Az. Time Alt. Az. Time Alt. Az.
29 Nov ? 18:57:08 10° N 19:01:42 31° WNW 19:06:19 10° WSW visible
30 Nov ? 18:28:47 10° N 18:33:51 51° WNW 18:38:59 10° SW visible
01 Dec ? 18:00:36 10° NNE 18:05:53 84° WNW 18:11:14 10° SSW visible
01 Dec ? 19:41:36 10° NNW 19:44:40 16° NW 19:47:46 10° W visible
02 Dec ? 17:32:34 10° NNE 17:37:47 58° ESE 17:43:03 10° S visible
02 Dec ? 19:12:45 10° N 19:16:58 25° WNW 19:21:12 10° WSW visible
03 Dec ? 18:44:14 10° N 18:49:07 39° WNW 18:54:02 10° SW visible
04 Dec ? 18:15:55 10° N 18:21:09 65° WNW 18:26:27 10° SSW visible
04 Dec ? 19:57:33 10° NNW 19:59:44 13° NW 20:01:56 10° WNW visible
05 Dec ? 17:47:45 10° NNE 17:53:04 77° ESE 17:58:26 10° S visible
05 Dec ? 19:28:18 10° NNW 19:32:03 20° WNW 19:35:48 10° WSW visible
06 Dec ? 18:59:36 10° N 19:04:13 31° WNW 19:08:51 10° WSW visible
07 Dec ? 18:31:08 10° N 18:36:15 50° WNW 18:41:25 10° SW visible
08 Dec ? 18:02:49 10° NNE 18:08:10 83° WNW 18:13:33 10° SSW visible
08 Dec ? 19:43:48 10° NNW 19:46:56 16° NW 19:50:04 10° W visible
